St-Lary-Espiaube, France 16 day weather forecast

Slopes altitude range 1700 m - 2500m

Number of lifts: -1 Pistes: -1km

In some cases the lift and piste totals shown are for the ski domain (e.g. Three Valleys) rather than individual resort (e.g. Courchevel)

Overview

The 16 day weather forecast is fully updated 4 times every day.

    • Sun 16 JUN 2019
    • Sun 16
    • 12C 22C
    • Mon 17 JUN 2019
    • Mon 17
    • 15C 25C
    • Tue 18 JUN 2019
    • Tue 18
    • 17C 26C
    • Wed 19 JUN 2019
    • Wed 19
    • 16C 24C
    • Thu 20 JUN 2019
    • Thu 20
    • 15C 23C
    • Fri 21 JUN 2019
    • Fri 21
    • 12C 18C
    • Sat 22 JUN 2019
    • Sat 22
    • 13C 19C
    • Sun 23 JUN 2019
    • Sun 23
    • 16C 25C
    • Mon 24 JUN 2019
    • Mon 24
    • 19C 30C
    • Tue 25 JUN 2019
    • Tue 25
    • 12C 15C
    • Wed 26 JUN 2019
    • Wed 26
    • 9C 13C
    • Thu 27 JUN 2019
    • Thu 27
    • 14C 17C
    • Fri 28 JUN 2019
    • Fri 28
    • 21C 24C
    • Sat 29 JUN 2019
    • Sat 29
    • 22C 26C
    • Sun 30 JUN 2019
    • Sun 30
    • 15C 23C
    • Mon 01 JUL 2019
    • Mon 01
    • 14C 18C

Date:

Time Type 0°C level Temp Chill Snow Cloud Speed Gust Dir Press
12:00 3576m 22°C 22_5 0cm 0% 5mph 6mph 1019mB
15:00 3419m 23°C 23_5 0cm 23% 5mph 5mph 1017mB
18:00 3808m 23°C 23_3 0cm 46% 3mph 4mph 1017mB
21:00 3683m 14°C 14_4 0cm 100% 4mph 5mph 1019mB
0:00 3659m 13°C 13_4 0cm 100% 4mph 5mph 1018mB
3:00 3516m 12°C 12_5 0cm 5% 5mph 6mph 1018mB
6:00 3476m 11°C 11_4 0cm 39% 4mph 5mph 1018mB
9:00 3505m 15°C 15_4 0cm 0% 4mph 2mph 1017mB
12:00 3463m 25°C 25_5 0cm 0% 5mph 7mph 1016mB
15:00 3583m 25°C 25_5 0cm 15% 5mph 5mph 1013mB
18:00 3633m 25°C 25_3 0cm 11% 3mph 4mph 1013mB
21:00 3684m 15°C 15_3 0cm 32% 3mph 3mph 1015mB
0:00 3641m 15°C 15_4 0cm 66% 4mph 4mph 1015mB
3:00 3649m 14°C 14_3 0cm 97% 3mph 4mph 1014mB
6:00 3664m 14°C 14_3 0cm 75% 3mph 3mph 1014mB
9:00 3670m 17°C 17_5 0cm 17% 5mph 7mph 1013mB
12:00 3630m 26°C 26_9 0cm 9% 9mph 15mph 1012mB
15:00 3661m 26°C 26_9 0cm 30% 9mph 14mph 1010mB
18:00 3640m 26°C 26_7 0cm 55% 7mph 13mph 1010mB
21:00 3709m 14°C 14_3 0cm 56% 3mph 4mph 1012mB
0:00 3640m 13°C 13_3 0cm 28% 3mph 3mph 1013mB
3:00 3562m 12°C 12_4 0cm 0% 4mph 5mph 1013mB
6:00 3545m 12°C 12_3 0cm 0% 3mph 3mph 1014mB
9:00 3712m 16°C 16_5 0cm 0% 5mph 8mph 1013mB
12:00 3656m 24°C 24_8 0cm 19% 8mph 9mph 1012mB
15:00 3509m 24°C 24_6 0cm 0% 6mph 7mph 1011mB
18:00 3690m 24°C 24_5 0cm 18% 5mph 7mph 1011mB
21:00 3535m 15°C 15_4 0cm 2% 4mph 4mph 1013mB
0:00 3520m 15°C 15_2 0cm 44% 2mph 3mph 1014mB
3:00 3478m 13°C 13_3 0cm 68% 3mph 4mph 1014mB
6:00 3384m 12°C 12_1 0cm 34% 1mph 2mph 1015mB
9:00 3415m 15°C 15_3 0cm 64% 3mph 6mph 1015mB
12:00 3416m 23°C 23_3 0cm 64% 3mph 6mph 1014mB
15:00 3487m 23°C 23_3 0cm 92% 3mph 5mph 1013mB
18:00 3563m 23°C 23_3 0cm 88% 3mph 4mph 1014mB
21:00 3440m 14°C 14_7 0cm 85% 7mph 7mph 1016mB
0:00 3467m 14°C 14_6 0cm 92% 6mph 7mph 1017mB
3:00 3396m 12°C 12_5 0cm 99% 5mph 7mph 1017mB
6:00 3342m 12°C 12_3 0cm 99% 3mph 5mph 1017mB
9:00 3295m 12°C 12_3 0cm 81% 3mph 4mph 1018mB
12:00 3385m 18°C 18_5 0cm 62% 5mph 6mph 1017mB
15:00 3408m 19°C 19_2 0cm 25% 2mph 3mph 1016mB
18:00 3476m 19°C 19_2 0cm 14% 2mph 3mph 1016mB
21:00 3490m 12°C 12_3 0cm 0% 3mph 3mph 1018mB
0:00 3463m 11°C 11_2 0cm 1% 2mph 3mph 1018mB
3:00 3419m 10°C 10_1 0cm 62% 1mph 2mph 1017mB
6:00 3369m 10°C 10_2 0cm 52% 2mph 3mph 1018mB
9:00 3459m 13°C 13_5 0cm 52% 5mph 5mph 1016mB
12:00 3472m 19°C 19_4 0cm 76% 4mph 5mph 1016mB
15:00 3508m 20°C 20_2 0cm 100% 2mph 4mph 1014mB
18:00 3526m 20°C 20_2 0cm 51% 2mph 3mph 1014mB
21:00 3560m 13°C 13_5 0cm 33% 5mph 6mph 1017mB
0:00 3677m 13°C 13_5 0cm 67% 5mph 6mph 1017mB
3:00 3651m 13°C 13_5 0cm 99% 5mph 6mph 1016mB
6:00 3931m 13°C 13_3 0cm 100% 3mph 3mph 1016mB
9:00 3901m 16°C 16_4 0cm 98% 4mph 5mph 1016mB
12:00 4308m 25°C 25_5 0cm 97% 5mph 8mph 1015mB
15:00 4430m 26°C 26_6 0cm 97% 6mph 7mph 1013mB
18:00 4556m 26°C 26_1 0cm 99% 1mph 1mph 1013mB
21:00 4535m 17°C 17_11 0cm 100% 11mph 13mph 1014mB
0:00 4583m 17°C 17_12 0cm 73% 12mph 16mph 1014mB
3:00 4615m 18°C 18_13 0cm 0% 13mph 17mph 1013mB
6:00 4497m 18°C 18_13 0cm 4% 13mph 16mph 1013mB
9:00 4506m 19°C 19_7 0cm 41% 7mph 10mph 1013mB
12:00 4634m 30°C 30_1 0cm 44% 1mph 11mph 1013mB
15:00 4668m 29°C 29_1 0cm 0% 1mph 10mph 1012mB
18:00 4756m 29°C 29_3 0cm 0% 3mph 5mph 1012mB
21:00 4777m 16°C 16_1 0cm 1% 1mph 5mph 1016mB
0:00 4753m 13°C 13_1 0cm 24% 1mph 5mph 1017mB
3:00 4588m 12°C 12_1 0cm 55% 1mph 4mph 1018mB
6:00 4496m 11°C 11_3 0cm 57% 3mph 4mph 1019mB
9:00 4566m 12°C 12_6 0cm 97% 6mph 6mph 1020mB
12:00 4505m 15°C 15_7 0cm 99% 7mph 7mph 1020mB
15:00 4374m 14°C 14_6 0cm 100% 6mph 8mph 1020mB
18:00 4217m 14°C 14_4 0cm 100% 4mph 7mph 1021mB
21:00 4090m 10°C 10_4 0cm 100% 4mph 7mph 1023mB
0:00 3955m 9°C 9_5 0cm 100% 5mph 9mph 1023mB
3:00 3764m 8°C 8_5 0cm 100% 5mph 7mph 1023mB
6:00 3731m 7°C 7_3 0cm 100% 3mph 5mph 1024mB
Afternoon 1.10417mm 0.0625 4225m 13°C 13_3 0cm 83% 3mph 5mph 1023mB
Morning 0.0416667mm 0.0625 4420m 5°C 5_1 0cm 61% 1mph 1mph 1024mB
Afternoon 0.5625mm 0 4496m 17°C 17_5 0cm 0% 5mph 5mph 1020mB
Morning 0.0625mm 0 4626m 9°C 9_3 0cm 0% 3mph 4mph 1020mB
Afternoon 0.0208333mm 0 4708m 24°C 24_2 0cm 0% 2mph 4mph 1014mB
Morning 0.0208333mm 0.875 4519m 15°C 15_9 0cm 42% 9mph 10mph 1013mB
Afternoon 0.0416667mm 0.4375 4637m 26°C 26_4 0cm 0% 4mph 6mph 1010mB
Morning 3.27083mm 0 4683m 15°C 15_5 0cm 0% 5mph 6mph 1012mB
Afternoon 0.0208333mm 2.9375 4252m 23°C 23_4 0cm 68% 4mph 6mph 1009mB
Morning 0.104167mm 0.125 3793m 10°C 10_3 0cm 99% 3mph 6mph 1014mB
Afternoon 0.208333mm 0.0625 4085m 18°C 18_4 0cm 33% 4mph 5mph 1014mB
Morning 0mm 0 4566m 10°C 10_0 0cm 45% 0mph 2mph 1017mB

16 day outlook at a glance

Forecast issued: 6/16/2019 2:33:46 PM

Chat

Your comments and questions. In a resort? Let us know what it's like!


Characters left 250

For terms and conditions see Readers Comments on the Cookie and privacy policy page.